SP6RGZ-1 Weather Reports


time (UTC)temp
C
wind
direction
speed
KPH
gust
KPH
rain 1hr
cm
rain 24hr
cm
rain mn
cm
humidity
%
barometer
mb
20260506181502 17 0.0 0.0 0.00 0.00 0.00 98 986.8
20260506180002 18 0.0 0.0 0.00 0.00 0.00 90 986.2
20260506174502 18 0.0 0.0 0.00 0.00 0.00 79 986.3
20260506173002 18 0.0 0.0 0.00 0.00 0.00 78 986.3
20260506171502 20 0.0 0.0 0.00 0.00 0.00 73 986.4
20260506170002 22 0.0 0.0 0.00 0.00 0.00 49 986.2
20260506164502 23 0.0 0.0 0.00 0.00 0.00 44 985.7
20260506163002 23 0.0 0.0 0.00 0.00 0.00 43 985.7
20260506161502 23 0.0 0.0 0.00 0.00 0.00 42 985.8
20260506160002 24 0.0 0.0 0.00 0.00 0.00 42 985.9
20260506154501 24 0.0 0.0 0.00 0.00 0.00 41 985.9
20260506153002 24 0.0 0.0 0.00 0.00 0.00 40 985.9
20260506151502 25 0.0 0.0 0.00 0.00 0.00 39 985.9
20260506150002 25 0.0 0.0 0.00 0.00 0.00 40 986.0
20260506144502 25 0.0 0.0 0.00 0.00 0.00 40 986.1
20260506143001 26 0.0 0.0 0.00 0.00 0.00 41 986.3
20260506141501 26 0.0 0.0 0.00 0.00 0.00 42 986.5
20260506140002 26 0.0 0.0 0.00 0.00 0.00 41 986.6
20260506134502 26 0.0 0.0 0.00 0.00 0.00 41 986.6
20260506133002 26 0.0 0.0 0.00 0.00 0.00 42 986.8
20260506131502 27 0.0 0.0 0.00 0.00 0.00 40 986.8
20260506130002 26 0.0 0.0 0.00 0.00 0.00 42 986.9
20260506124502 26 0.0 0.0 0.00 0.00 0.00 42 986.8
20260506123002 25 0.0 0.0 0.00 0.00 0.00 44 986.9
20260506121502 25 0.0 0.0 0.00 0.00 0.00 43 986.8
20260506120002 26 0.0 0.0 0.00 0.00 0.00 44 986.9
20260506114502 25 0.0 0.0 0.00 0.00 0.00 46 986.8
20260506113002 25 0.0 0.0 0.00 0.00 0.00 47 986.8
20260506111502 25 0.0 0.0 0.00 0.00 0.00 46 986.9
20260506110002 25 0.0 0.0 0.00 0.00 0.00 47 986.9
20260506104502 24 0.0 0.0 0.00 0.00 0.00 48 986.8
20260506103001 25 0.0 0.0 0.00 0.00 0.00 47 986.8
20260506101502 25 0.0 0.0 0.00 0.00 0.00 48 986.8
20260506100002 26 0.0 0.0 0.00 0.00 0.00 46 986.8
20260506094502 25 0.0 0.0 0.00 0.00 0.00 48 986.7
20260506093002 25 0.0 0.0 0.00 0.00 0.00 51 986.7
20260506091502 24 0.0 0.0 0.00 0.00 0.00 52 986.6
20260506090002 23 0.0 0.0 0.00 0.00 0.00 56 986.6
20260506084502 22 0.0 0.0 0.00 0.00 0.00 58 986.6
20260506083003 22 0.0 0.0 0.00 0.00 0.00 59 986.6
20260506081502 22 0.0 0.0 0.00 0.00 0.00 58 986.4
20260506073002 21 0.0 0.0 0.00 0.00 0.00 64 986.2
20260506071502 20 0.0 0.0 0.00 0.00 0.00 66 986.1
20260506061502 18 0.0 0.0 0.00 0.00 0.00 73 986.1
20260506044502 16 0.0 0.0 0.00 0.00 0.00 77 985.5
20260506043002 14 0.0 0.0 0.00 0.00 0.00 86 985.7
20260506041502 14 0.0 0.0 0.00 0.00 0.00 85 985.3
20260506040002 13 0.0 0.0 0.00 0.00 0.00 88 985.0
20260506034502 12 0.0 0.0 0.00 0.00 0.00 95 984.8
20260506024502 11 0.0 0.0 0.00 0.00 0.00 98 985.4
20260506023002 11 0.0 0.0 0.00 0.00 0.00 97 985.4
20260506021502 12 0.0 0.0 0.00 0.00 0.00 95 985.5
20260506020002 12 0.0 0.0 0.00 0.00 0.00 95 985.5
20260506014502 12 0.0 0.0 0.00 0.00 0.00 93 985.4
20260506013002 12 0.0 0.0 0.00 0.00 0.00 91 985.5
20260506011503 12 0.0 0.0 0.00 0.00 0.00 91 985.5
20260506010002 12 0.0 0.0 0.00 0.00 0.00 89 985.4
20260506004502 13 0.0 0.0 0.00 0.00 0.00 88 985.2
20260506003002 13 0.0 0.0 0.00 0.00 0.00 87 985.1
20260506001502 13 0.0 0.0 0.00 0.00 0.00 87 985.0
20260506000002 13 0.0 0.0 0.00 0.00 0.00 85 985.0
20260505234502 14 0.0 0.0 0.00 0.00 0.00 85 985.1
20260505233002 14 0.0 0.0 0.00 0.00 0.00 84 985.2
20260505231502 15 0.0 0.0 0.00 0.00 0.00 82 985.2
20260505230002 15 0.0 0.0 0.00 0.00 0.00 82 985.3
20260505224502 15 0.0 0.0 0.00 0.00 0.00 81 985.5